Location: Coed Ely
(51.5661°N, 3.4150°W)
Time: 01:59:28
(UTC+00:00)

Cosmos 44 Rocket - Pass Details

Date: 28 January 2021
Orbit: 637 x 753 km, 65.1° (Epoch: 28 February)

Event Time Altitude Azimuth Distance (km) Brightness Sun altitude
Rises 19:56:20 0° 219° (SW) 3,056 7.0 -27.8°
Reaches altitude 10° 19:58:37 10° 219° (SW) 2,161 6.2 -28.2°
Enters shadow 20:02:04 47° 220° (SW) 948 4.1 -28.7°
